Weather History for Benton Harbor, MI

Change the Weather History Date:

Monday, February 24, 2014

  Actual Average Record
Temperature  
Mean Temperature 20 °F -  
Max Temperature 23 °F 37 °F 64 °F (1984)
Min Temperature 17 °F 23 °F 1 °F (1989)
Degree Days  
Heating Degree Days 45    
Moisture  
Dew Point 11 °F    
Average Humidity 69    
Maximum Humidity 77    
Minimum Humidity 58    
Precipitation  
Precipitation 0.00 in - - ()
Sea Level Pressure  
Sea Level Pressure 30.22 in    
Wind  
Wind Speed 13 mph (WNW)    
Max Wind Speed 18 mph    
Max Gust Speed 30 mph    
Visibility 10 miles    
Events      
Averages and records for this station are not official NWS values.
T = Trace of Precipitation, MM = Missing Value Source: NWS Daily Summary

Daily Weather History Graph

Daily Weather History Graph

Search for Another Location

Airport:

Trip Planner

Search our weather history database for the weather conditions in past years. The results will help you decide how hot, cold, wet, or windy it might be!

Date:

Astronomy

Feb. 24, 2014 Rise Set
Actual Time 7:28 AM EST 6:29 PM EST
Civil Twilight 7:00 AM EST 6:58 PM EST
Nautical Twilight 6:28 AM EST 7:30 PM EST
Astronomical Twilight 5:55 AM EST 8:02 PM EST
Moon 3:30 AM EST (2/24) 1:26 PM EST (2/24)
Length of Visible Light 11h 57m
Length of Day
11h 01m
Waning Crescent, 28% of the Moon is Illuminated
Feb 24
Waning Crescent
Mar 1
New
Mar 8
First Quarter
Mar 16
Full
Mar 23
Last Quarter

Hourly Weather History & Observations

Time (EST) Temp. Windchill Dew Point Humidity Pressure Visibility Wind Dir Wind Speed Gust Speed Precip Events Conditions
12:53 AM 19.9 °F 6.2 °F 10.9 °F 68% 30.19 in 10.0 mi WNW 15.0 mph 26.5 mph N/A   Overcast
1:09 AM 19.4 °F 7.2 °F 10.4 °F 68% 30.16 in 10.0 mi WNW 11.5 mph 20.7 mph N/A   Overcast
1:53 AM 19.0 °F 5.0 °F 10.9 °F 71% 30.19 in 10.0 mi WNW 15.0 mph 20.7 mph N/A   Overcast
2:53 AM 19.0 °F 5.0 °F 10.9 °F 71% 30.19 in 10.0 mi WNW 15.0 mph - N/A   Overcast
3:53 AM 18.0 °F 5.4 °F 10.0 °F 71% 30.19 in 10.0 mi WNW 11.5 mph 20.7 mph N/A   Overcast
4:53 AM 18.0 °F 4.2 °F 10.0 °F 71% 30.19 in 10.0 mi WNW 13.8 mph - N/A   Overcast
5:53 AM 18.0 °F 4.8 °F 10.0 °F 71% 30.20 in 10.0 mi WNW 12.7 mph 20.7 mph N/A   Overcast
6:53 AM 17.1 °F 5.8 °F 10.9 °F 77% 30.21 in 10.0 mi WNW 9.2 mph - N/A   Mostly Cloudy
7:53 AM 17.1 °F 3.0 °F 10.9 °F 77% 30.22 in 10.0 mi West 13.8 mph - N/A   Overcast
8:53 AM 18.0 °F 2.6 °F 10.9 °F 74% 30.24 in 10.0 mi West 17.3 mph 23.0 mph N/A   Overcast
9:53 AM 18.0 °F 4.8 °F 10.9 °F 74% 30.25 in 10.0 mi WNW 12.7 mph - N/A   Overcast
10:53 AM 19.0 °F 5.0 °F 12.0 °F 74% 30.26 in 10.0 mi West 15.0 mph - N/A   Overcast
11:53 AM 19.0 °F 5.0 °F 12.0 °F 74% 30.27 in 10.0 mi West 15.0 mph - 0.00 in   Overcast
12:53 PM 19.9 °F 6.2 °F 12.0 °F 71% 30.26 in 10.0 mi West 15.0 mph 24.2 mph N/A   Overcast
1:53 PM 21.0 °F 6.6 °F 12.0 °F 68% 30.25 in 10.0 mi West 17.3 mph 24.2 mph N/A   Mostly Cloudy
2:14 PM 21.2 °F 7.8 °F 10.4 °F 63% 30.21 in 10.0 mi WNW 15.0 mph 25.3 mph N/A   Scattered Clouds
2:53 PM 21.9 °F 7.8 °F 10.9 °F 63% 30.25 in 10.0 mi West 17.3 mph 26.5 mph N/A   Clear
3:53 PM 23.0 °F 8.7 °F 10.0 °F 58% 30.24 in 10.0 mi WNW 18.4 mph 29.9 mph N/A   Scattered Clouds
4:53 PM 23.0 °F 10.6 °F 10.9 °F 60% 30.23 in 10.0 mi West 13.8 mph 20.7 mph N/A   Partly Cloudy
5:53 PM 21.9 °F 11.0 °F 10.0 °F 60% 30.22 in 10.0 mi West 10.4 mph - N/A   Partly Cloudy
6:53 PM 21.0 °F 10.6 °F 10.9 °F 65% 30.23 in 10.0 mi WNW 9.2 mph - N/A   Clear
7:53 PM 21.0 °F 9.9 °F 12.0 °F 68% 30.23 in 10.0 mi WNW 10.4 mph - N/A   Clear
8:53 PM 19.9 °F 11.1 °F 10.0 °F 65% 30.22 in 10.0 mi WNW 6.9 mph - N/A   Clear
9:53 PM 21.0 °F 13.4 °F 12.0 °F 68% 30.22 in 10.0 mi WNW 5.8 mph - N/A   Overcast
10:53 PM 21.0 °F 12.4 °F 12.0 °F 68% 30.22 in 10.0 mi WNW 6.9 mph - N/A   Overcast
11:53 PM 21.0 °F 12.4 °F 12.9 °F 71% 30.21 in 10.0 mi West 6.9 mph - N/A   Overcast